Location: Castillon
(43.0896°N, 0.2156°E)
Time: 10:24:39
(UTC+00:00)

Cosmos 1544 Rocket - Pass Details

Date: 23 October 2021
Orbit: 603 x 631 km, 82.5° (Epoch: 08 December)

Event Time Altitude Azimuth Distance (km) Brightness Sun altitude
Rises 18:39:38 0° 202° (SSW) 2,909 7.3 -18.2°
Reaches altitude 10° 18:41:56 10° 209° (SSW) 2,007 6.5 -18.6°
Maximum altitude 18:46:13 46° 282° (WNW) 858 4.7 -19.4°
Drops below altitude 10° 18:50:32 10° 356° (N) 2,020 6.3 -20.2°
Sets 18:52:51 0° 3° (N) 2,930 7.0 -20.6°
